User: anonymous   Login
Location: Unspecified
(0.0000°N, 0.0000°E)
Time: 16:09:55
(UTC+02:00)
Language:

Cosmos 1933 - Orbit

View from above orbital plane
View from above orbital plane
View from above satellite
View from above satellite

Ground track
Ground track

The orbit data is extracted from the following two-line orbital elements,

1 18958U 88020A   17263.85731978 +.00000541 +00000-0 +37789-4 0  9994
2 18958 082.5325 011.5289 0010622 322.9763 037.0729 15.03298884584730
Epoch (UTC): 20 September 2017 20:34:32
Eccentricity: 0.0010622
inclination: 82.5325°
perigee height: 549 km
apogee height: 564 km
right ascension of ascending node: 11.5289°
argument of perigee: 322.9763°
revolutions per day: 15.03298884
mean anomaly at epoch: 37.0729°
orbit number at epoch: 58473

The dashed part of the orbit path shows where the satellite is in the earth's shadow,  

DLR